This is the latest recevied weather packets stored in our database for station/object W8XLR-2. If no packets are shown the sender has not sent any weather packets the latest 10 day(s).
| Time | Temp. | Humidity | Pressure | Rain* | Wind** | Luminosity | Snow |
|---|---|---|---|---|---|---|---|
| 1777939009 | 21.11° C | 56% | 1007.7 hPa | 0 mm | - | - | - |
| 1777938416 | 21.11° C | 56% | 1007.7 hPa | 0 mm | - | - | - |
| 1777937809 | 21.11° C | 55% | 1007.5 hPa | 0 mm | - | - | - |
| 1777937353 | 21.11° C | 56% | 1007.9 hPa | 0 mm | - | - | - |
| 1777937218 | 21.11° C | 56% | 1007.9 hPa | 0 mm | - | - | - |
| 1777936612 | 21.11° C | 56% | 1007.9 hPa | 0 mm | - | - | - |
| 1777936009 | 21.67° C | 54% | 1007.9 hPa | 0 mm | - | - | - |
| 1777935411 | 21.67° C | 54% | 1008.2 hPa | 0 mm | - | - | - |
| 1777934813 | 21.67° C | 54% | 1008.2 hPa | 0 mm | - | - | - |
| 1777934208 | 21.67° C | 55% | 1008.3 hPa | 0 mm | - | - | - |
| 1777933609 | 22.22° C | 53% | 1008.2 hPa | 0 mm | - | - | - |
| 1777933009 | 22.22° C | 53% | 1008.2 hPa | 0 mm | - | - | - |
| 1777932412 | 21.67° C | 53% | 1008.5 hPa | 0 mm | - | - | - |
| 1777931808 | 21.67° C | 52% | 1008.4 hPa | 0 mm | - | - | - |
| 1777931209 | 21.67° C | 52% | 1008.4 hPa | 0 mm | - | - | - |
| 1777930609 | 21.67° C | 50% | 1008.6 hPa | 0 mm | - | - | - |
| 1777930008 | 22.78° C | 49% | 1008.4 hPa | 0 mm | - | - | - |
| 1777929409 | 22.78° C | 49% | 1008.4 hPa | 0 mm | - | - | - |
| 1777928810 | 22.22° C | 47% | 1008.3 hPa | 0 mm | - | - | - |
| 1777928208 | 22.22° C | 49% | 1008.3 hPa | 0 mm | - | - | - |
| 1777927610 | 22.22° C | 49% | 1008.3 hPa | 0 mm | - | - | - |
| 1777927009 | 22.22° C | 49% | 1008.3 hPa | 0 mm | - | - | - |
| 1777926409 | 22.22° C | 47% | 1008.6 hPa | 0 mm | - | - | - |
| 1777925808 | 22.22° C | 47% | 1008.6 hPa | 0 mm | - | - | - |
| 1777925208 | 22.78° C | 47% | 1008.8 hPa | 0 mm | - | - | - |
* Rain latest hour (hover to see other rain measurements)
** Current wind speed in m/s (hover to see current wind gust speed)